Location: Drocourt
(49.0571°N, 1.7669°E)
Time: 15:20:48
(UTC+00:00)

Vanguard 3 - All Passes

Search period start: 13 April 2024 00:00
Search period end: 23 April 2024 00:00
Orbit: 510 x 3236 km, 33.3° (Epoch: 12 April)

Date Brightness Start Highest point End Pass type
(mag) Time Alt. Az. Time Alt. Az. Time Alt. Az.
13 Apr - 05:49:50 10° S 05:52:35 12° S 05:54:55 10° SSE daylight
13 Apr - 08:00:32 10° SW 08:03:13 13° S 08:05:29 10° SSE daylight
14 Apr - 04:33:55 10° S 04:35:21 10° SSE 04:36:41 10° SSE visible
14 Apr - 06:42:18 10° SSW 06:46:26 16° S 06:49:40 10° SE daylight
14 Apr - 08:55:10 10° SW 08:56:45 11° SSW 08:58:11 10° S daylight
15 Apr - 05:24:17 10° SSW 05:29:22 16° S 05:33:16 10° SE daylight
15 Apr - 07:36:12 10° SW 07:40:08 16° S 07:43:14 10° SSE daylight
16 Apr - 04:06:50 10° S 04:11:59 14° SSE 04:16:05 10° SE visible
16 Apr - 06:17:33 10° SW 06:23:16 19° S 06:27:25 10° SE daylight
16 Apr - 08:30:58 10° SW 08:33:38 13° SSW 08:35:53 10° S daylight
17 Apr - 02:51:16 10° S 02:54:18 11° SSE 02:57:01 10° SE visible
17 Apr - 04:59:00 10° SSW 05:06:04 20° S 05:11:06 10° SE daylight
17 Apr - 07:11:46 10° SW 07:16:59 19° S 07:20:48 10° SE daylight
18 Apr - 03:40:52 10° SSW 03:48:30 18° SSE 03:54:09 10° SE visible
18 Apr - 05:52:42 10° SW 06:00:00 23° S 06:04:59 10° SE daylight
18 Apr - 08:06:44 10° SW 08:10:27 15° SSW 08:13:25 10° SSE daylight
19 Apr - 02:23:53 10° S 02:30:36 15° SSE 02:36:01 10° SE visible
19 Apr - 04:33:42 10° SW 04:42:37 24° S 04:48:40 10° ESE daylight
19 Apr - 06:47:13 10° WSW 06:53:44 22° SSW 06:58:16 10° SE daylight
20 Apr - 01:12:14 10° SSE 01:12:30 10° SSE 01:12:46 10° SE visible
20 Apr - 03:15:04 10° SSW 03:24:50 22° SSE 03:31:46 10° ESE visible
20 Apr - 05:27:44 10° SW 05:36:37 27° S 05:42:24 10° SE daylight
20 Apr - 07:42:20 10° WSW 07:47:11 17° SSW 07:50:50 10° SSE daylight
21 Apr - 01:57:26 10° S 02:06:44 18° SSE 02:13:55 10° ESE visible
21 Apr - 04:08:20 10° SW 04:19:02 28° S 04:26:04 10° ESE visible
21 Apr - 06:22:28 10° WSW 06:30:22 25° SSW 06:35:37 10° SE daylight
21 Apr - 08:40:01 10° SW 08:40:18 10° SW 08:40:35 10° SSW daylight
22 Apr - 00:42:04 10° S 00:48:26 13° SSE 00:53:59 10° ESE visible
22 Apr - 02:49:20 10° SSW 03:01:01 26° SSE 03:09:07 10° ESE visible
22 Apr - 05:02:39 10° WSW 05:13:04 30° S 05:19:43 10° SE daylight
22 Apr - 07:17:47 10° WSW 07:23:48 19° SSW 07:28:09 10° SSE daylight
